GW4222 Weather Reports


time (UTC)temp
C
wind
direction
speed
KPH
gust
KPH
rain 1hr
cm
rain 24hr
cm
rain mn
cm
humidity
%
barometer
mb
20260507120022 5 215 0.0 3.2 0.03 2.24 0.05 97 1008.1
20260507114521 5 215 0.0 3.2 0.00 2.21 0.03 97 1008.0
20260507113030 5 215 0.0 0.0 0.00 2.21 0.03 97 1007.9
20260507104526 5 215 0.0 3.2 0.00 2.24 0.03 97 1007.9
20260507103025 5 215 0.0 3.2 0.00 2.26 0.03 97 1007.8
20260507101533 4 215 0.0 0.0 0.00 2.26 0.03 97 1007.8
20260507100030 4 215 0.0 3.2 0.00 2.29 0.03 96 1007.7
20260507094521 4 215 0.0 0.0 0.00 2.29 0.03 96 1007.5
20260507091512 4 215 0.0 3.2 0.00 2.29 0.03 96 1007.7
20260507090019 5 215 0.0 3.2 0.00 2.29 0.03 96 1007.6
20260507084504 5 215 0.0 3.2 0.00 2.29 0.03 96 1007.7
20260507083006 5 197 1.6 3.2 0.00 2.29 0.03 97 1008.0
20260507081503 5 308 0.0 3.2 0.00 2.31 0.03 96 1008.0
20260507080004 5 312 0.0 3.2 0.00 2.34 0.03 96 1008.0
20260507074526 5 312 0.0 0.0 0.00 2.34 0.03 96 1007.9
20260507073011 5 312 0.0 0.0 0.00 2.34 0.03 96 1007.8
20260507071507 5 312 0.0 3.2 0.00 2.36 0.03 96 1007.7
20260507064506 5 312 0.0 3.2 0.03 2.46 0.03 96 1007.6
20260507063004 5 312 0.0 3.2 0.03 2.46 0.03 96 1007.4
20260507061519 5 312 0.0 3.2 0.03 2.46 0.03 96 1007.6
20260507060017 5 312 0.0 3.2 0.00 2.44 0.00 96 1007.5
20260507053009 5 312 0.0 3.2 0.00 2.46 0.00 96 1008.0
20260507051505 5 234 0.0 3.2 0.00 2.49 0.00 96 1008.2
20260507044522 5 352 0.0 3.2 0.00 2.49 0.00 96 1008.6
20260507043015 5 352 0.0 3.2 0.00 2.54 0.00 96 1008.1
20260507041516 5 352 0.0 3.2 0.00 2.54 0.00 96 1008.3
20260507040010 6 352 0.0 3.2 0.00 2.67 0.00 96 1008.4
20260507034507 6 352 0.0 3.2 0.00 2.77 2.67 96 1008.4
20260507033024 6 352 0.0 1.6 0.00 2.79 2.67 96 1008.6
20260507031523 6 352 0.0 3.2 0.00 2.92 2.67 96 1008.5
20260507024519 6 298 0.0 3.2 0.03 2.92 2.67 96 1008.4
20260507023014 6 298 0.0 0.0 0.10 2.95 2.67 96 1008.7
20260507021526 6 298 0.0 3.2 0.13 2.95 2.67 96 1008.7
20260507020025 6 298 0.0 3.2 0.13 2.95 2.67 96 1008.7
20260507014525 6 298 0.0 0.0 0.13 2.92 2.64 96 1008.8
20260507011534 6 298 0.0 3.2 0.13 2.82 2.57 95 1008.8
20260507004518 6 298 0.0 3.2 0.15 2.79 2.54 95 1008.1
20260507003025 6 298 0.0 3.2 0.05 2.67 2.44 95 1008.0
20260507001508 6 298 0.0 3.2 0.05 2.67 2.44 95 1007.6
20260507000008 6 298 0.0 3.2 0.08 2.64 2.41 95 1007.4
20260506234509 7 298 0.0 3.2 0.05 2.64 2.39 95 1007.0
20260506233003 7 298 0.0 3.2 0.05 2.64 2.39 95 1007.2
20260506231503 7 298 0.0 3.2 0.05 2.64 2.39 95 1007.1
20260506230002 7 280 0.0 3.2 0.03 2.59 2.34 95 1007.0
20260506224522 7 318 1.6 3.2 0.03 2.59 2.34 94 1007.0
20260506223006 7 293 0.0 3.2 0.03 2.59 2.34 95 1007.0
20260506221505 7 319 0.0 3.2 0.03 2.59 2.34 95 1006.7
20260506220005 7 46 1.6 3.2 0.03 2.57 2.31 95 1006.8
20260506214503 7 316 0.0 3.2 0.05 2.57 2.31 95 1006.7
20260506213003 7 317 0.0 3.2 0.05 2.57 2.31 95 1006.5
20260506211518 7 317 0.0 3.2 0.05 2.57 2.31 95 1006.7
20260506210015 7 317 0.0 3.2 0.03 2.54 2.29 94 1006.6
20260506204510 7 313 0.0 3.2 0.03 2.51 2.26 94 1006.7
20260506203006 7 338 0.0 3.2 0.08 2.57 2.26 94 1006.4
20260506200004 7 294 0.0 4.8 0.13 2.57 2.26 94 1006.5
20260506194518 7 317 0.0 3.2 0.10 2.62 2.24 94 1006.6
20260506193016 7 267 0.0 3.2 0.05 2.57 2.18 94 1006.7
20260506191517 7 296 0.0 4.8 0.05 2.54 2.16 94 1006.6
20260506190007 7 42 1.6 3.2 0.05 2.51 2.13 94 1006.6
20260506184508 7 299 0.0 4.8 0.13 2.51 2.13 94 1006.6
20260506183006 7 290 0.0 6.4 0.23 2.51 2.13 94 1006.6
20260506181522 7 56 1.6 6.4 0.30 2.49 2.11 94 1006.7
20260506180021 7 50 1.6 6.4 0.36 2.46 2.08 94 1007.2
20260506174518 7 346 3.2 12.9 0.33 2.39 2.01 94 1007.2
20260506171515 7 310 3.2 8.0 0.33 2.18 1.80 94 1007.3
20260506170007 8 296 0.0 6.4 0.38 2.11 1.73 95 1007.2
20260506163038 7 13 1.6 6.4 0.38 1.96 1.57 94 1007.2
20260506161518 7 57 1.6 6.4 0.33 1.85 1.47 94 1007.4
20260506154528 8 11 0.0 4.8 0.25 1.68 1.30 94 1007.4
20260506153009 8 33 3.2 8.0 0.20 1.57 1.19 94 1007.4
20260506151506 8 34 3.2 6.4 0.18 1.52 1.14 94 1007.6
20260506150007 8 25 1.6 8.0 0.15 1.47 1.09 94 1007.7
20260506144505 8 309 0.0 6.4 0.15 1.42 1.04 95 1007.9
20260506143004 8 33 0.0 6.4 0.15 1.37 0.99 95 1007.9
20260506141516 8 352 0.0 4.8 0.18 1.32 0.97 94 1007.8
20260506134511 8 40 0.0 3.2 0.25 1.27 0.89 94 1007.8
20260506133006 8 317 1.6 3.2 0.28 1.22 0.84 94 1008.2
20260506130004 8 148 0.0 4.8 0.23 1.12 0.74 95 1008.5
20260506124518 9 5 0.0 3.2 0.13 1.02 0.64 95 1008.6
20260506123017 9 40 1.6 4.8 0.05 0.94 0.56 95 1008.6
20260506121514 9 41 0.0 3.2 0.03 0.91 0.53 95 1008.5